カタログに戻る

METEOR 1-10 DEB

運用中PO
NORAD 8827·DEBRIS·🇷🇺 Russia

打ち上げ Dec 29, 1971 から Plesetsk Cosmodrome

Loading…

次のパス (今後24時間)

TLE

最新Source: Space-Track

元期: Sep 14, 2026, 08:53 UTC

1 08827U 71120D   26257.37056156  .00000110  00000-0  48390-4 0  9991
2 08827  81.2642 238.1286 0012926 341.3177  18.7521 14.17083887820760

AllMySatでMETEOR 1-10 DEBをリアルタイム追跡

Download on the App Store